DW6996 Weather Reports


Display with metric or nautical units.
time (UTC)temp
F
wind
direction
speed
MPH
gust
MPH
rain 1hr
in
rain 24hr
in
rain mn
in
humidity
%
barometer
mb
20260906090801 88 0 0.0 0.0 0.00 0.00 0.00 35 1008.9
20260906090301 88 0 0.0 0.0 0.00 0.00 0.00 35 1009.0
20260906085801 88 0 0.0 0.0 0.00 0.00 0.00 35 1009.0
20260906085521 89 0 0.0 0.0 0.00 0.00 0.00 35 1009.0
20260906084802 88 0 0.0 0.0 0.00 0.00 0.00 35 1009.0
20260906084301 88 0 0.0 0.0 0.00 0.00 0.00 35 1009.1
20260906084023 89 0 0.0 0.0 0.00 0.00 0.00 35 1009.1
20260906083301 89 0 0.0 0.0 0.00 0.00 0.00 35 1009.2
20260906083022 89 0 0.0 0.0 0.00 0.00 0.00 35 1009.2
20260906082521 89 0 0.0 0.0 0.00 0.00 0.00 34 1009.3
20260906081800 89 13 0.0 0.0 0.00 0.00 0.00 34 1009.4
20260906081301 89 13 0.0 0.0 0.00 0.00 0.00 34 1009.4
20260906081022 89 13 0.0 0.0 0.00 0.00 0.00 34 1009.4
20260906080301 89 13 0.0 0.0 0.00 0.00 0.00 34 1009.4
20260906075801 89 13 0.0 0.0 0.00 0.00 0.00 34 1009.5
20260906075301 89 13 0.0 0.0 0.00 0.00 0.00 34 1009.6
20260906074801 89 13 0.0 0.0 0.00 0.00 0.00 34 1009.6
20260906074301 89 12 0.0 0.0 0.00 0.00 0.00 33 1009.6
20260906074030 90 12 0.0 0.0 0.00 0.00 0.00 33 1009.6
20260906073301 90 12 0.0 0.0 0.00 0.00 0.00 33 1009.6
20260906072800 90 12 0.0 0.0 0.00 0.00 0.00 33 1009.6
20260906072305 90 22 0.0 0.0 0.00 0.00 0.00 32 1009.6
20260906071800 90 22 0.0 0.0 0.00 0.00 0.00 32 1009.7
20260906071301 90 22 0.0 0.0 0.00 0.00 0.00 32 1009.6
20260906070801 90 22 0.0 0.0 0.00 0.00 0.00 32 1009.7
20260906070301 90 22 0.0 0.0 0.00 0.00 0.00 32 1009.6
20260906065800 90 25 0.0 0.0 0.00 0.00 0.00 32 1009.7
20260906065305 90 27 0.0 0.0 0.00 0.00 0.00 32 1009.7
20260906064801 90 16 0.0 0.0 0.00 0.00 0.00 32 1009.7
20260906064521 90 302 0.0 0.0 0.00 0.00 0.00 33 1009.6
20260906063801 90 287 0.0 0.0 0.00 0.00 0.00 33 1009.7
20260906063520 90 287 0.0 0.0 0.00 0.00 0.00 33 1009.7
20260906063019 90 287 0.0 0.0 0.00 0.00 0.00 33 1009.6
20260906062251 90 287 0.0 0.0 0.00 0.00 0.00 33 1009.7
20260906061750 90 287 0.0 0.0 0.00 0.00 0.00 33 1009.7
20260906061252 90 287 0.0 0.0 0.00 0.00 0.00 33 1009.7
20260906060751 90 287 0.0 0.0 0.00 0.00 0.00 33 1009.6
20260906060248 90 287 0.0 0.0 0.00 0.00 0.00 32 1009.6
20260906060240 90 287 0.0 0.0 0.00 0.00 0.00 33 1009.7
20260906055245 90 287 0.0 0.0 0.00 0.00 0.00 33 1009.8
20260906054745 90 287 0.0 0.0 0.00 0.00 0.00 33 1009.8
20260906054244 90 287 0.0 0.0 0.00 0.00 0.00 33 1009.8
20260906053742 90 287 0.0 0.0 0.00 0.00 0.00 33 1009.8
20260906053241 91 287 0.0 0.0 0.00 0.00 0.00 33 1009.8
20260906053004 91 287 0.0 0.0 0.00 0.00 0.00 33 1009.8
20260906052241 91 287 0.0 0.0 0.00 0.00 0.00 32 1009.8
20260906051739 91 287 0.0 0.0 0.00 0.00 0.00 32 1009.9
20260906051238 91 287 0.0 0.0 0.00 0.00 0.00 32 1009.8
20260906050737 92 287 0.0 0.0 0.00 0.00 0.00 32 1009.8
20260906050237 92 287 0.0 0.0 0.00 0.00 0.00 32 1009.8
20260906045734 92 287 0.0 0.0 0.00 0.00 0.00 32 1009.8
20260906045236 92 287 0.0 0.0 0.00 0.00 0.00 32 1009.8
20260906045004 92 287 0.0 0.0 0.00 0.00 0.00 32 1009.8
20260906044234 92 287 0.0 0.0 0.00 0.00 0.00 31 1009.8
20260906043735 92 287 0.0 0.0 0.00 0.00 0.00 31 1009.8
20260906043233 92 287 0.0 0.0 0.00 0.00 0.00 31 1009.8
20260906042733 92 287 0.0 0.0 0.00 0.00 0.00 31 1009.7
20260906042454 92 287 0.0 0.0 0.00 0.00 0.00 31 1009.7
20260906041733 92 287 0.0 0.0 0.00 0.00 0.00 31 1009.8
20260906041233 92 287 0.0 0.0 0.00 0.00 0.00 31 1009.8
20260906040730 92 287 0.0 0.0 0.00 0.00 0.00 31 1009.9
20260906040453 92 287 0.0 0.0 0.00 0.00 0.00 31 1009.9
20260906035729 92 287 0.0 0.0 0.00 0.00 0.00 31 1009.9
20260906035458 92 287 0.0 0.0 0.00 0.00 0.00 31 1009.8
20260906034729 92 287 0.0 0.0 0.00 0.00 0.00 31 1009.8
20260906034229 92 287 0.0 0.0 0.00 0.00 0.00 31 1009.7
20260906033958 93 287 0.0 0.0 0.00 0.00 0.00 30 1009.6
20260906033230 93 254 0.0 0.0 0.00 0.00 0.00 30 1009.6
20260906032728 93 254 0.0 0.0 0.00 0.00 0.00 30 1009.5
20260906032449 93 254 0.0 0.0 0.00 0.00 0.00 30 1009.5
20260906031729 93 254 0.0 0.0 0.00 0.00 0.00 30 1009.5
20260906031228 93 275 0.0 0.0 0.00 0.00 0.00 30 1009.5
20260906030728 94 275 0.0 0.0 0.00 0.00 0.00 30 1009.5
20260906030229 94 275 0.0 0.0 0.00 0.00 0.00 30 1009.5
20260906025958 94 277 0.0 0.0 0.00 0.00 0.00 29 1009.4
20260906025229 94 303 0.0 0.0 0.00 0.00 0.00 29 1009.4
20260906024729 94 284 0.0 1.0 0.00 0.00 0.00 29 1009.4
20260906024228 94 300 0.0 1.0 0.00 0.00 0.00 29 1009.2
20260906023950 94 280 0.0 2.0 0.00 0.00 0.00 29 1009.2
20260906023225 94 261 0.0 2.0 0.00 0.00 0.00 29 1009.2
20260906022724 94 288 0.0 1.0 0.00 0.00 0.00 29 1009.1
20260906022224 94 310 0.0 1.0 0.00 0.00 0.00 28 1009.1
20260906021723 94 277 0.0 0.0 0.00 0.00 0.00 28 1009.1
20260906021217 95 288 0.0 4.0 0.00 0.00 0.00 28 1009.1
20260906020712 95 275 0.0 8.0 0.00 0.00 0.00 28 1009.2
20260906020205 95 291 0.0 8.0 0.00 0.00 0.00 28 1009.1
20260906015707 95 290 0.0 4.0 0.00 0.00 0.00 27 1009.1
20260906015651 95 264 0.0 2.0 0.00 0.00 0.00 27 1009.1
20260906014931 96 285 0.0 3.0 0.00 0.00 0.00 27 1009.1
20260906014205 96 301 0.0 3.0 0.00 0.00 0.00 27 1009.2
20260906013702 96 287 0.0 4.0 0.00 0.00 0.00 27 1009.2
20260906013201 96 259 0.0 4.0 0.00 0.00 0.00 27 1009.2
20260906012703 96 277 0.0 3.0 0.00 0.00 0.00 26 1009.3
20260906012202 96 292 0.0 3.0 0.00 0.00 0.00 26 1009.3
20260906011701 96 278 0.0 3.0 0.00 0.00 0.00 26 1009.4
20260906011201 97 281 0.0 4.0 0.00 0.00 0.00 26 1009.3
20260906010702 97 288 0.0 4.0 0.00 0.00 0.00 26 1009.3
20260906010201 97 295 0.0 3.0 0.00 0.00 0.00 26 1009.3
20260906005701 97 265 0.0 8.0 0.00 0.00 0.00 25 1009.3
20260906005201 97 305 0.0 8.0 0.00 0.00 0.00 25 1009.3
20260906004700 98 271 0.0 4.0 0.00 0.00 0.00 25 1009.2
20260906004202 98 279 0.0 1.0 0.00 0.00 0.00 26 1009.2
20260906003924 98 284 0.0 1.0 0.00 0.00 0.00 26 1009.2
20260906003159 98 261 0.0 1.0 0.00 0.00 0.00 26 1009.2
20260906002653 98 244 0.0 1.0 0.00 0.00 0.00 26 1009.3
20260906002147 98 255 0.0 4.0 0.00 0.00 0.00 26 1009.2
20260906001640 98 288 0.0 4.0 0.00 0.00 0.00 25 1009.2
20260906001133 98 253 0.0 10.0 0.00 0.00 0.00 25 1009.1
20260906000630 99 263 1.0 10.0 0.00 0.00 0.00 25 1009.2
20260906000130 99 265 0.0 7.0 0.00 0.00 0.00 25 1009.1
20260905235630 99 231 0.0 4.0 0.00 0.00 0.00 24 1009.0
20260905235130 100 247 0.0 4.0 0.00 0.00 0.00 24 1009.0
20260905234630 100 282 0.0 3.0 0.00 0.00 0.00 24 1009.1
20260905234353 100 246 0.0 4.0 0.00 0.00 0.00 24 1009.1
20260905233629 100 198 1.0 14.0 0.00 0.00 0.00 24 1009.1
20260905233130 100 234 0.0 14.0 0.00 0.00 0.00 24 1009.1
20260905232631 100 226 0.0 8.0 0.00 0.00 0.00 24 1009.2
20260905232130 100 232 1.0 17.0 0.00 0.00 0.00 24 1009.2
20260905231853 100 225 1.0 17.0 0.00 0.00 0.00 24 1009.2
20260905231130 99 205 1.0 7.0 0.00 0.00 0.00 24 1009.3
20260905230630 99 213 1.0 7.0 0.00 0.00 0.00 24 1009.3
20260905230355 99 229 0.0 6.0 0.00 0.00 0.00 24 1009.3
20260905225629 100 252 1.0 9.0 0.00 0.00 0.00 24 1009.2
20260905225130 100 219 1.0 9.0 0.00 0.00 0.00 24 1009.3
20260905224630 100 227 0.0 3.0 0.00 0.00 0.00 25 1009.3
20260905224128 100 219 0.0 3.0 0.00 0.00 0.00 25 1009.3
20260905223622 99 254 0.0 10.0 0.00 0.00 0.00 25 1009.4
20260905223116 100 240 0.0 10.0 0.00 0.00 0.00 25 1009.4
20260905222616 100 240 0.0 1.0 0.00 0.00 0.00 25 1009.4
20260905222113 100 282 0.0 9.0 0.00 0.00 0.00 25 1009.5
20260905221613 100 264 0.0 9.0 0.00 0.00 0.00 25 1009.6
20260905221114 100 265 0.0 6.0 0.00 0.00 0.00 26 1009.6
20260905220612 99 269 0.0 6.0 0.00 0.00 0.00 26 1009.7
20260905220110 100 261 0.0 7.0 0.00 0.00 0.00 26 1009.9
20260905215611 100 242 0.0 7.0 0.00 0.00 0.00 26 1009.9
20260905215336 100 256 0.0 14.0 0.00 0.00 0.00 26 1009.9
20260905214609 100 229 0.0 14.0 0.00 0.00 0.00 27 1009.9
20260905214108 100 261 0.0 6.0 0.00 0.00 0.00 27 1010.0
20260905213608 100 265 0.0 2.0 0.00 0.00 0.00 27 1010.1
20260905213108 100 254 0.0 2.0 0.00 0.00 0.00 27 1010.2
20260905212608 100 239 0.0 2.0 0.00 0.00 0.00 27 1010.2
20260905212108 100 219 0.0 2.0 0.00 0.00 0.00 27 1010.1
20260905211829 100 239 0.0 2.0 0.00 0.00 0.00 28 1010.2
20260905211316 100 230 0.0 3.0 0.00 0.00 0.00 27 1010.4
20260905211307 100 232 0.0 3.0 0.00 0.00 0.00 28 1010.3
20260905210329 100 255 0.0 0.0 0.00 0.00 0.00 28 1010.4
20260905205605 100 246 0.0 0.0 0.00 0.00 0.00 28 1010.4
20260905205332 100 252 0.0 0.0 0.00 0.00 0.00 28 1010.7
20260905204606 100 327 0.0 0.0 0.00 0.00 0.00 27 1010.7
20260905204106 101 281 0.0 2.0 0.00 0.00 0.00 27 1010.7
20260905204051 101 232 0.0 2.0 0.00 0.00 0.00 27 1010.8
20260905203106 100 240 0.0 1.0 0.00 0.00 0.00 27 1011.0
20260905202607 101 270 0.0 1.0 0.00 0.00 0.00 27 1011.0
20260905202332 101 204 0.0 0.0 0.00 0.00 0.00 27 1011.1
20260905201606 100 146 0.0 1.0 0.00 0.00 0.00 28 1011.1
20260905201106 100 150 0.0 1.0 0.00 0.00 0.00 27 1011.2
20260905200832 100 198 0.0 1.0 0.00 0.00 0.00 27 1011.2
20260905200105 100 229 0.0 1.0 0.00 0.00 0.00 27 1011.2
20260905195606 99 214 0.0 1.0 0.00 0.00 0.00 28 1011.3
20260905195106 99 194 0.0 4.0 0.00 0.00 0.00 28 1011.3
20260905194605 98 185 0.0 4.0 0.00 0.00 0.00 28 1011.4
20260905194106 98 244 0.0 2.0 0.00 0.00 0.00 28 1011.5
20260905193605 98 237 0.0 0.0 0.00 0.00 0.00 29 1011.6
20260905193105 98 181 0.0 0.0 0.00 0.00 0.00 29 1011.6
20260905192605 98 173 0.0 2.0 0.00 0.00 0.00 29 1011.6
20260905192103 98 220 0.0 2.0 0.00 0.00 0.00 29 1011.7
20260905191601 99 229 0.0 1.0 0.00 0.00 0.00 28 1011.8
20260905191101 98 282 0.0 0.0 0.00 0.00 0.00 29 1011.9
20260905191051 98 196 0.0 1.0 0.00 0.00 0.00 30 1012.0
20260905190101 97 214 0.0 1.0 0.00 0.00 0.00 30 1012.1
20260905185601 97 175 0.0 1.0 0.00 0.00 0.00 30 1012.1
20260905185100 96 232 0.0 0.0 0.00 0.00 0.00 31 1012.3
20260905185046 96 232 0.0 1.0 0.00 0.00 0.00 31 1012.3
20260905184101 96 233 0.0 1.0 0.00 0.00 0.00 30 1012.4
20260905183825 96 228 0.0 0.0 0.00 0.00 0.00 31 1012.4
20260905183102 95 214 0.0 1.0 0.00 0.00 0.00 31 1012.4
20260905182601 95 194 0.0 2.0 0.00 0.00 0.00 31 1012.5
20260905182101 95 132 0.0 6.0 0.00 0.00 0.00 31 1012.5
20260905181602 95 165 0.0 6.0 0.00 0.00 0.00 31 1012.6
20260905181101 95 173 0.0 2.0 0.00 0.00 0.00 31 1012.6
20260905180818 95 128 0.0 2.0 0.00 0.00 0.00 31 1012.6
20260905180100 96 150 0.0 0.0 0.00 0.00 0.00 31 1012.7
20260905175603 95 177 0.0 0.0 0.00 0.00 0.00 31 1012.7
20260905175100 95 190 0.0 0.0 0.00 0.00 0.00 31 1012.7
20260905174601 94 213 0.0 0.0 0.00 0.00 0.00 32 1012.6
20260905174101 93 236 0.0 0.0 0.00 0.00 0.00 32 1012.6
20260905173601 93 236 0.0 0.0 0.00 0.00 0.00 32 1012.6
20260905173101 93 235 0.0 0.0 0.00 0.00 0.00 32 1012.6
20260905172601 93 234 0.0 0.0 0.00 0.00 0.00 33 1012.6
20260905172332 92 211 0.0 0.0 0.00 0.00 0.00 33 1012.6
20260905171600 92 217 0.0 0.0 0.00 0.00 0.00 33 1012.7
20260905171103 92 217 0.0 0.0 0.00 0.00 0.00 33 1012.6
20260905170601 92 208 0.0 0.0 0.00 0.00 0.00 33 1012.6
20260905170100 92 217 0.0 0.0 0.00 0.00 0.00 33 1012.6
20260905165558 92 220 0.0 0.0 0.00 0.00 0.00 34 1012.5
20260905165049 92 220 0.0 0.0 0.00 0.00 0.00 34 1012.6
20260905164543 92 218 0.0 0.0 0.00 0.00 0.00 34 1012.6
20260905164037 92 219 0.0 0.0 0.00 0.00 0.00 34 1012.6
20260905163757 91 227 0.0 0.0 0.00 0.00 0.00 34 1012.6
20260905163035 92 235 0.0 0.0 0.00 0.00 0.00 34 1012.6
20260905162533 91 225 0.0 0.0 0.00 0.00 0.00 34 1012.6
20260905162030 91 189 0.0 0.0 0.00 0.00 0.00 34 1012.5
20260905161529 91 189 0.0 0.0 0.00 0.00 0.00 34 1012.4
20260905161029 91 188 0.0 0.0 0.00 0.00 0.00 34 1012.4
20260905160753 91 189 0.0 0.0 0.00 0.00 0.00 35 1012.3
20260905160029 91 188 0.0 0.0 0.00 0.00 0.00 35 1012.3
20260905155529 91 193 0.0 0.0 0.00 0.00 0.00 35 1012.3
20260905155029 91 193 0.0 0.0 0.00 0.00 0.00 35 1012.3
20260905154529 91 226 0.0 0.0 0.00 0.00 0.00 35 1012.4
20260905154029 91 236 0.0 0.0 0.00 0.00 0.00 35 1012.3
20260905153529 91 230 0.0 0.0 0.00 0.00 0.00 34 1012.3
20260905153029 91 221 0.0 0.0 0.00 0.00 0.00 35 1012.1
20260905152747 91 273 0.0 0.0 0.00 0.00 0.00 34 1012.1
20260905152029 91 283 0.0 0.0 0.00 0.00 0.00 34 1012.0
20260905151756 91 331 0.0 0.0 0.00 0.00 0.00 34 1012.1
20260905151031 91 331 0.0 0.0 0.00 0.00 0.00 34 1012.0
20260905150526 91 331 0.0 0.0 0.00 0.00 0.00 35 1011.9
20260905150019 90 331 0.0 0.0 0.00 0.00 0.00 35 1011.9
20260905145512 90 330 0.0 0.0 0.00 0.00 0.00 35 1011.9
20260905145011 90 331 0.0 0.0 0.00 0.00 0.00 35 1012.1
20260905144512 90 331 0.0 0.0 0.00 0.00 0.00 35 1012.1
20260905144009 89 349 0.0 0.0 0.00 0.00 0.00 35 1011.9
20260905143728 89 349 0.0 0.0 0.00 0.00 0.00 36 1011.9
20260905143007 88 349 0.0 0.0 0.00 0.00 0.00 36 1011.8
20260905142736 88 349 0.0 0.0 0.00 0.00 0.00 37 1011.8
20260905142009 87 349 0.0 0.0 0.00 0.00 0.00 37 1011.8
20260905141507 87 349 0.0 0.0 0.00 0.00 0.00 38 1011.8
20260905141005 86 349 0.0 0.0 0.00 0.00 0.00 39 1011.7
20260905140503 86 349 0.0 0.0 0.00 0.00 0.00 39 1011.8
20260905140003 85 348 0.0 0.0 0.00 0.00 0.00 40 1011.7
20260905135502 85 349 0.0 0.0 0.00 0.00 0.00 39 1011.5
20260905135001 85 349 0.0 0.0 0.00 0.00 0.00 39 1011.6
20260905134501 85 349 0.0 0.0 0.00 0.00 0.00 40 1011.5
20260905134000 85 349 0.0 0.0 0.00 0.00 0.00 40 1011.4
20260905133502 85 348 0.0 0.0 0.00 0.00 0.00 40 1011.3
20260905133219 85 348 0.0 0.0 0.00 0.00 0.00 39 1011.3
20260905132502 85 348 0.0 0.0 0.00 0.00 0.00 39 1011.3
20260905132000 85 348 0.0 0.0 0.00 0.00 0.00 40 1011.2
20260905131719 85 348 0.0 0.0 0.00 0.00 0.00 39 1011.2
20260905131001 85 348 0.0 0.0 0.00 0.00 0.00 39 1011.2
20260905130501 85 348 0.0 0.0 0.00 0.00 0.00 39 1011.1
20260905130003 85 348 0.0 0.0 0.00 0.00 0.00 39 1011.0
20260905125500 86 348 0.0 0.0 0.00 0.00 0.00 39 1011.0
20260905125001 86 348 0.0 0.0 0.00 0.00 0.00 39 1011.0
20260905124502 86 348 0.0 0.0 0.00 0.00 0.00 38 1010.9
20260905124001 86 348 0.0 0.0 0.00 0.00 0.00 38 1010.8
20260905123501 86 348 0.0 0.0 0.00 0.00 0.00 38 1010.8
20260905123001 87 348 0.0 0.0 0.00 0.00 0.00 37 1010.8
20260905122500 87 348 0.0 0.0 0.00 0.00 0.00 37 1010.7
20260905122000 86 348 0.0 0.0 0.00 0.00 0.00 37 1010.7
20260905121726 86 348 0.0 0.0 0.00 0.00 0.00 38 1010.6
20260905121000 86 348 0.0 0.0 0.00 0.00 0.00 38 1010.6
20260905120501 86 348 0.0 0.0 0.00 0.00 0.00 38 1010.6
20260905120001 86 348 0.0 0.0 0.00 0.00 0.00 38 1010.6
20260905115500 86 348 0.0 0.0 0.00 0.00 0.00 38 1010.6
20260905115001 86 348 0.0 0.0 0.00 0.00 0.00 38 1010.6
20260905114502 86 348 0.0 0.0 0.00 0.00 0.00 38 1010.4
20260905114001 86 348 0.0 0.0 0.00 0.00 0.00 38 1010.4
20260905113501 86 348 0.0 0.0 0.00 0.00 0.00 38 1010.4
20260905113001 86 348 0.0 0.0 0.00 0.00 0.00 38 1010.6
20260905112501 86 348 0.0 0.0 0.00 0.00 0.00 38 1010.6
20260905112001 86 348 0.0 0.0 0.00 0.00 0.00 38 1010.6
20260905111501 86 348 0.0 0.0 0.00 0.00 0.00 38 1010.6
20260905111001 87 348 0.0 0.0 0.00 0.00 0.00 38 1010.6
20260905110501 87 348 0.0 0.0 0.00 0.00 0.00 38 1010.4
20260905110000 87 348 0.0 0.0 0.00 0.00 0.00 38 1010.4
20260905105501 87 348 0.0 0.0 0.00 0.00 0.00 38 1010.3
20260905105223 87 348 0.0 0.0 0.00 0.00 0.00 38 1010.4
20260905104943 87 348 0.0 0.0 0.00 0.00 0.00 37 1010.4
20260905104001 87 347 0.0 0.0 0.00 0.00 0.00 37 1010.4
20260905103501 87 345 0.0 0.0 0.00 0.00 0.00 37 1010.4
20260905103000 87 344 0.0 0.0 0.00 0.00 0.00 36 1010.3
20260905102502 87 344 0.0 0.0 0.00 0.00 0.00 37 1010.2
20260905102454 87 344 0.0 0.0 0.00 0.00 0.00 37 1010.1
20260905101726 87 344 0.0 0.0 0.00 0.00 0.00 36 1010.2
20260905101218 87 344 0.0 0.0 0.00 0.00 0.00 36 1010.1
20260905100501 87 344 0.0 0.0 0.00 0.00 0.00 36 1010.1
20260905100221 87 344 0.0 0.0 0.00 0.00 0.00 36 1010.1
20260905095501 88 344 0.0 0.0 0.00 0.00 0.00 36 1010.2
20260905095000 88 344 0.0 0.0 0.00 0.00 0.00 36 1010.2
20260905094501 88 344 0.0 0.0 0.00 0.00 0.00 36 1010.2
20260905094000 88 344 0.0 0.0 0.00 0.00 0.00 36 1010.2
20260905093501 88 344 0.0 0.0 0.00 0.00 0.00 36 1010.2
20260905093001 88 344 0.0 0.0 0.00 0.00 0.00 36 1010.3
20260905092456 88 344 0.0 0.0 0.00 0.00 0.00 36 1010.3
20260905092215 88 344 0.0 0.0 0.00 0.00 0.00 36 1010.2
20260905091443 88 344 0.0 0.0 0.00 0.00 0.00 36 1010.2